ENDUENNA

Guest
Details From ENDU - Bardufoss
To ENNA - BANAK
Flight Number -
Tags generated
Created
Modified
Stats Distance 149 nm / 275 km
Max Altitude 11,200 ft / 3,414 m
Waypoints 4
Social Downloads 2
Likes 0
Share VATSIM

Download

Looking for another format? Having issues loading an existing format? Contact us
Advertisement - Login to hide

Notes

Basic altitude profile: - Ascent Rate: 2500ft/min - Ascent Speed: 250kts - Cruise Altitude: 35000ft - Cruise Speed: 420kts - Descent Rate: 1500ft/min - Descent Speed: 250kts Options: - Use NATs: yes - Use PACOTS: yes - Use low airways: yes - Use high airways: yes

Route

ENDU PIGAX Z205 BADUX ENNA

ID Type Via Altitude Latitude Longitude Leg Dist Tot Dist Heading (true) Name
O ENDU APT - 0 ft / 0 m 69.05593˚ 18.53890˚ - 0 nm - Bardufoss
PIGAX FIX - 9,800 ft / 2,987 m 69.32361˚ 19.74389˚ 30 nm 30 nm 57° / 59° -
BADUX FIX Z205 (AWY-LO) 11,200 ft / 3,414 m 69.83444˚ 22.52028˚ 65 nm 96 nm 61° / 64° -
O ENNA APT - 0 ft / 0 m 70.06881˚ 24.97349˚ 52 nm 148 nm 73° / 76° BANAK

Altitude Profile

Advertisement - Login to hide

ENDU

Details ICAO ENDU (BDU)
Name Bardufoss
Region Norway
Timezone Europe/Oslo (UTC+2.0)
Stats Elevation 252 ft / 77 m (AMSL)
Location 69.055932° 18.538902°
Runways 1
Magnetic Variation 8.510° E

METAR

ENDU 212150Z 24004KT 210V280 9999 -RA FEW040 BKN050 08/04 Q1021 RMK WIND 1100FT 23011KT WIND 2200FT 24009KT

Decode

TAF

TAF ENDU 211700Z 2118/2218 24008KT 9999 FEW005 BKN040 TEMPO 2203/2212 RA BKN012 TEMPO 2212/2218 27015G25KT

Decode

Departure Runways

ID Width Length Bearing (true) Bearing (mag) Surface Threshold Offset Overrun Length
10 148 ft / 45 m 8,022 ft / 2,445 m 109.02° 100.51° Asphalt 0 ft / 0 m 890 ft / 271 m
28 148 ft / 45 m 8,022 ft / 2,445 m 289.08° 280.57° Asphalt 0 ft / 0 m 890 ft / 271 m

ENNA

Details ICAO ENNA (LKL)
Name BANAK
Region Norway
Timezone Unknown (UTC+0.0)
Stats Elevation 25 ft / 8 m (AMSL)
Location 70.068813° 24.973489°
Runways 1
Magnetic Variation 12.487° E

METAR

ENNA 212220Z AUTO VRB03KT 9999 OVC098/// 09/M02 Q1020 RMK WIND 1800FT 27016KT

Decode

TAF

TAF TAF ENNA 211700Z 2118/2218 20008KT 9999 BKN040 TEMPO 2118/2120 28015G30KT TEMPO 2215/2218 28015G30KT

Decode

Destination Runways

ID Width Length Bearing (true) Bearing (mag) Surface Threshold Offset Overrun Length
17 148 ft / 45 m 9,104 ft / 2,775 m 175.43° 162.94° Asphalt 302 ft / 92 m 0 ft / 0 m
35 148 ft / 45 m 9,104 ft / 2,775 m 355.44° 342.95° Asphalt 302 ft / 92 m 0 ft / 0 m

Approach Navaids

Runway Type Ident Frequency Range Bearing (true) Bearing (mag) Slope Elevation
17 Localiser BK 109.35 MHz 18 nm / 33 km 175.43° 162.95° - 25 ft / 8 m (AMSL)
17 DME BK 109.35 MHz 18 nm / 33 km - - - 55 ft / 17 m (AMSL)
35 Localiser BA 108.30 MHz 18 nm / 33 km 355.43° 342.94° - 25 ft / 8 m (AMSL)
35 Glidescope BA 108.30 MHz 10 nm / 19 km 355.43° 342.95° 3.50° 25 ft / 8 m (AMSL)